Weather History for Istanbul / Ataturk, Turkey

Change the Weather History Date:

Friday, January 31, 2014

  Actual Average Record
Temperature  
Mean Temperature 38 °F -  
Max Temperature 43 °F 47 °F - ()
Min Temperature 34 °F 37 °F - ()
Degree Days  
Heating Degree Days 26    
Moisture  
Dew Point 32 °F    
Average Humidity 76    
Maximum Humidity 87    
Minimum Humidity 61    
Precipitation  
Precipitation 0.00 in - - ()
Sea Level Pressure  
Sea Level Pressure 30.51 in    
Wind  
Wind Speed 12 mph ()    
Max Wind Speed 16 mph    
Max Gust Speed 26 mph    
Visibility 6.3 miles    
Events      
T = Trace of Precipitation, MM = Missing Value Source: Averaged Metar Reports

Daily Weather History Graph

Daily Weather History Graph

Search for Another Location

Airport:

Trip Planner

Search our weather history database for the weather conditions in past years. The results will help you decide how hot, cold, wet, or windy it might be!

Date:

Astronomy

Jan. 31, 2014 Rise Set
Actual Time 7:16 AM EET 5:20 PM EET
Civil Twilight 6:47 AM EET 5:49 PM EET
Nautical Twilight 6:14 AM EET 6:22 PM EET
Astronomical Twilight 5:42 AM EET 6:54 PM EET
Moon 7:11 AM EET (1/31) 6:21 PM EET (1/31)
Length of Visible Light 11h 02m
Length of Day
10h 03m
New Moon, 0% of the Moon is Illuminated
Jan 31
New Moon
Feb 6
First Quarter
Feb 15
Full
Feb 22
Last Quarter
Mar 1
New

Hourly Weather History & Observations

Time (EET) Temp. Windchill Dew Point Humidity Pressure Visibility Wind Dir Wind Speed Gust Speed Precip Events Conditions
12:20 AM 35.6 °F 28.0 °F 30.2 °F 81% 30.51 in 6.2 mi NNE 10.4 mph - N/A   Mostly Cloudy
12:50 AM 37.4 °F 29.8 °F 30.2 °F 75% 30.51 in 6.2 mi NE 11.5 mph - N/A   Mostly Cloudy
1:20 AM 37.4 °F 29.8 °F 30.2 °F 75% 30.51 in 6.2 mi NE 11.5 mph - N/A   Mostly Cloudy
1:50 AM 37.4 °F 29.3 °F 30.2 °F 75% 30.48 in 6.2 mi ENE 12.7 mph - N/A   Mostly Cloudy
2:00 AM 37 °F - 31 °F 71% 30.51 in 6 mi ENE 12.7 mph - -   Mostly Cloudy
2:20 AM 37.4 °F 29.8 °F 30.2 °F 75% 30.51 in 6.2 mi NE 11.5 mph - N/A   Mostly Cloudy
2:50 AM 37.4 °F 29.8 °F 30.2 °F 75% 30.48 in 6.2 mi NE 11.5 mph - N/A   Mostly Cloudy
3:20 AM 37.4 °F 29.3 °F 30.2 °F 75% 30.48 in 6.2 mi NE 12.7 mph - N/A   Mostly Cloudy
3:50 AM 37.4 °F 28.5 °F 30.2 °F 75% 30.48 in 6.2 mi NE 15.0 mph - N/A   Mostly Cloudy
4:20 AM 37.4 °F 28.9 °F 30.2 °F 75% 30.48 in 6.2 mi ENE 13.8 mph - N/A   Mostly Cloudy
4:50 AM 37.4 °F 29.3 °F 32.0 °F 81% 30.48 in 6.2 mi NE 12.7 mph - N/A   Mostly Cloudy
5:00 AM 38 °F - 31 °F 68% 30.51 in 6 mi NE 11.5 mph - -   Mostly Cloudy
5:20 AM 37.4 °F 28.9 °F 32.0 °F 81% 30.48 in 6.2 mi NE 13.8 mph - N/A   Mostly Cloudy
5:50 AM 37.4 °F 28.5 °F 32.0 °F 81% 30.48 in 6.2 mi NE 15.0 mph - N/A   Mostly Cloudy
6:20 AM 39.2 °F 30.8 °F 32.0 °F 75% 30.48 in 6.2 mi NE 15.0 mph - N/A   Mostly Cloudy
6:50 AM 39.2 °F 31.2 °F 32.0 °F 75% 30.48 in 6.2 mi ENE 13.8 mph - N/A   Mostly Cloudy
7:20 AM 41.0 °F 33.5 °F 33.8 °F 76% 30.48 in 6.2 mi NE 13.8 mph - N/A   Mostly Cloudy
7:50 AM 39.2 °F 31.2 °F 32.0 °F 75% 30.51 in 6.2 mi NE 13.8 mph - N/A   Mostly Cloudy
8:00 AM 39 °F - 32 °F 67% 30.52 in 6 mi NE 13.8 mph - -   Mostly Cloudy
8:20 AM 41.0 °F 33.9 °F 32.0 °F 70% 30.51 in 6.2 mi NE 12.7 mph - N/A   Mostly Cloudy
8:50 AM 39.2 °F 31.2 °F 32.0 °F 75% 30.51 in 6.2 mi NE 13.8 mph - N/A   Mostly Cloudy
9:20 AM 39.2 °F 31.6 °F 32.0 °F 75% 30.54 in 6.2 mi NE 12.7 mph - N/A   Mostly Cloudy
9:50 AM 39.2 °F 31.6 °F 32.0 °F 75% 30.54 in 6.2 mi NE 12.7 mph - N/A   Mostly Cloudy
10:20 AM 39.2 °F 31.2 °F 32.0 °F 75% 30.54 in 6.2 mi NE 13.8 mph - N/A   Mostly Cloudy
10:50 AM 39.2 °F 31.2 °F 32.0 °F 75% 30.54 in 6.2 mi NNE 13.8 mph - N/A   Mostly Cloudy
11:00 AM 40 °F - 31 °F 62% 30.56 in 12 mi NNE 13.8 mph - -   Mostly Cloudy
11:20 AM 39.2 °F 31.6 °F 32.0 °F 75% 30.54 in 6.2 mi NE 12.7 mph - N/A   Mostly Cloudy
11:50 AM 39.2 °F 31.2 °F 32.0 °F 75% 30.51 in 6.2 mi NE 13.8 mph - N/A   Mostly Cloudy
12:20 PM 39.2 °F 31.6 °F 32.0 °F 75% 30.51 in 6.2 mi NE 12.7 mph - N/A   Mostly Cloudy
12:50 PM 39.2 °F 31.2 °F 32.0 °F 75% 30.51 in 6.2 mi NNE 13.8 mph - N/A   Mostly Cloudy
1:20 PM 41.0 °F 33.9 °F 32.0 °F 70% 30.51 in 6.2 mi NE 12.7 mph - N/A   Mostly Cloudy
1:50 PM 41.0 °F 33.1 °F 32.0 °F 70% 30.51 in 6.2 mi NNE 15.0 mph - N/A   Mostly Cloudy
2:00 PM 40 °F - 31 °F 61% 30.53 in 6 mi NNE 15.0 mph - -   Mostly Cloudy
2:20 PM 39.2 °F 31.2 °F 30.2 °F 70% 30.51 in 6.2 mi NE 13.8 mph 25.3 mph N/A   Mostly Cloudy
2:50 PM 39.2 °F 30.8 °F 32.0 °F 75% 30.51 in 6.2 mi NE 15.0 mph - N/A   Mostly Cloudy
3:20 PM 39.2 °F 30.8 °F 32.0 °F 75% 30.51 in 6.2 mi Variable 15.0 mph 26.5 mph N/A   Mostly Cloudy
3:50 PM 39.2 °F 31.2 °F 32.0 °F 75% 30.51 in 6.2 mi NNE 13.8 mph - N/A   Mostly Cloudy
4:20 PM 39.2 °F 31.6 °F 32.0 °F 75% 30.51 in 6.2 mi NE 12.7 mph - N/A   Mostly Cloudy
4:50 PM 37.4 °F 28.5 °F 32.0 °F 81% 30.51 in 6.2 mi NE 15.0 mph - N/A   Mostly Cloudy
5:00 PM 38 °F - 32 °F 71% 30.52 in 6 mi NE 15.0 mph - -   Mostly Cloudy
5:20 PM 37.4 °F 29.3 °F 33.8 °F 87% 30.51 in 6.2 mi NE 12.7 mph - N/A   Mostly Cloudy
5:50 PM 37.4 °F 29.8 °F 33.8 °F 87% 30.51 in 6.2 mi NE 11.5 mph - N/A   Mostly Cloudy
6:20 PM 37.4 °F 28.5 °F 32.0 °F 81% 30.51 in 6.2 mi NE 15.0 mph - N/A   Mostly Cloudy
6:50 PM 37.4 °F 28.9 °F 33.8 °F 87% 30.51 in 6.2 mi NNE 13.8 mph - N/A   Mostly Cloudy
7:20 PM 37.4 °F 28.9 °F 33.8 °F 87% 30.51 in 6.2 mi NNE 13.8 mph - N/A   Mostly Cloudy
7:50 PM 37.4 °F 28.5 °F 32.0 °F 81% 30.51 in 6.2 mi NNE 15.0 mph - N/A   Mostly Cloudy
8:00 PM 38 °F - 33 °F 74% 30.54 in 6 mi NNE 15.0 mph - -   Mostly Cloudy
8:20 PM 37.4 °F 28.9 °F 32.0 °F 81% 30.51 in 6.2 mi NNE 13.8 mph - N/A   Mostly Cloudy
8:50 PM 37.4 °F 29.3 °F 33.8 °F 87% 30.51 in 6.2 mi NNE 12.7 mph - N/A   Mostly Cloudy
9:20 PM 37.4 °F 28.9 °F 33.8 °F 87% 30.51 in 6.2 mi NNE 13.8 mph - N/A   Mostly Cloudy
9:50 PM 41.0 °F 33.5 °F 32.0 °F 70% 30.51 in 6.2 mi NNE 13.8 mph - N/A   Mostly Cloudy
10:20 PM 39.2 °F 31.2 °F 32.0 °F 75% 30.51 in 6.2 mi Variable 13.8 mph - N/A   Mostly Cloudy
10:50 PM 37.4 °F 28.2 °F 32.0 °F 81% 30.51 in 6.2 mi NNE 16.1 mph - N/A   Mostly Cloudy
11:00 PM 38 °F - 33 °F 76% 30.53 in 6 mi NNE 16.1 mph - -   Mostly Cloudy
11:20 PM 37.4 °F 29.3 °F 33.8 °F 87% 30.51 in 6.2 mi NNE 12.7 mph - N/A   Mostly Cloudy
11:50 PM 37.4 °F 28.5 °F 33.8 °F 87% 30.51 in 6.2 mi NNE 15.0 mph - N/A   Mostly Cloudy